Location: Asheville, NC
(35.6000°N, 82.5500°W)
Time: 04:50:16
(UTC-05:00)

AAUSAT CUBESAT 2 - Pass Details

Date: 12 January 2018
Orbit: 576 x 594 km, 97.5° (Epoch: 17 January)

Event Time Altitude Azimuth Distance (km) Brightness Sun altitude
Rises 19:03:32 0° 147° (SSE) 2,807 ? -17.2°
Enters shadow 19:04:54 - 143° (SE) 2,263 ? -17.4°
Exits shadow 19:14:07 - 4° (N) 2,209 ? -19.3°
Sets 19:15:38 0° 359° (N) 2,811 ? -19.6°
